Regional Weather Roundup
Issued by NWS Midland/Odessa, TX

Home | Current Version | Previous Version | Text Only | Print | Product List | Glossary On
Versions: 1 2 3 4 5 6 7 8 9 10 11 12 13 14 15 16 17 18 19 20 21 22 23 24 25 26 27 28 29 30 31 32 33 34 35 36 37 38 39 40 41 42 43 44 45 46 47 48 49 50
000
ASUS44 KMAF 271610
RWRMAF
MIDLAND AREA WEATHER ROUNDUP
NATIONAL WEATHER SERVICE MIDLAND TX
1100 AM CDT MON APR 27 2015

...IN SOUTHWEST TEXAS AND SOUTHEAST NEW MEXICO...

CITY           SKY/WX    TMP DP  RH WIND       PRES   REMARKS
ALPINE         SUNNY     63  33  31 NW14      29.96R
ANDREWS        PTSUNNY   61  46  58 N9G16     29.86R
ARTESIA        PTSUNNY   61  43  51 N24G32    29.94R
BIG SPRING     PTSUNNY   65  46  50 W9        29.84R
CARLSBAD       CLOUDY    60  44  55 N20       29.90R
DRYDEN           N/A     75  31  19 W13G23    29.80S
FORT STOCKTON  SUNNY     64  37  36 W14G25    29.87R
GUAD PASS      MOSUNNY   53  37  54 MISG      29.96R
HOBBS          LGT RAIN  55  48  76 N10       29.89R
MARFA          SUNNY     61  34  36 W18       29.95R
MIDLAND AIRPK  MOSUNNY   63  47  56 NW6       29.84R
MIDLAND INTL   SUNNY     62  46  55 VRB6      29.84R
ODESSA         SUNNY     62  44  51 CALM      29.85R
PECOS          SUNNY     64  39  40 NW10G20   29.88S
PRESIDIO       FAIR      67  33  27 SW8       29.89F
SEMINOLE       CLOUDY    58  44  58 N10       29.88R
SNYDER         CLOUDY    57  51  81 N7        29.82S
WINK           SUNNY     64  42  44 VRB7      29.86R
$$
...OTHER STATIONS IN TEXAS...

CITY           SKY/WX    TMP DP  RH WIND       PRES   REMARKS
ABILENE        CLOUDY    62  54  74 VRB5      29.80R
AMARILLO       RAIN      43  42  97 N21G32    29.91R FOG     WCI  34
AUSTIN         PTSUNNY   69  63  81 NE3       29.71R
BROWNSVILLE    CLOUDY    84  78  82 NW13      29.62R HAZE
CORPUS CHRISTI CLOUDY    79  68  69 N13       29.65R
DALLAS FTW     PTSUNNY   67  58  72 E15G22    29.72F
DEL RIO        SUNNY     78  41  26 W12       29.76R
EL PASO        MOSUNNY   59  39  47 NE12      29.94R
HOUSTON INT    PTSUNNY   76  65  68 E9        29.66F
LUBBOCK        CLOUDY    53  47  79 N16       29.84R
SAN ANGELO     SUNNY     71  49  45 W12       29.79R
SAN ANTONIO    MOSUNNY   75  63  66 VRB3      29.72R
WACO           MOSUNNY   72  62  71 SE10      29.71S
WICHITA FALLS  NOT AVBL
$$
...OTHER LOCATIONS IN NEW MEXICO...

CITY           SKY/WX    TMP DP  RH WIND       PRES   REMARKS
ALAMAGORDO     MOSUNNY   59  39  47 N12       29.94R
ALBUQUERQUE    PTSUNNY   51  39  63 CALM      30.05R
CANNON AFB     NOT AVBL
CLOVIS         CLOUDY    45  41  87 N26G35    29.94R WCI  35
HOLLOMAN AFB   NOT AVBL
ROSWELL        CLOUDY    56  41  57 N23G33    29.94R
RUIDOSO        PTSUNNY   41  36  81 N14G23    30.04R WCI  33
SANTA FE       CLOUDY    46  36  68 N10       30.05R
TRUTH OR CONSE CLOUDY    54  40  59 NE16G23   30.00R
TUCUMCARI      RAIN      44  41  89 N18       30.00R FOG     WCI  36
$$


USA.gov is the U.S. government's official web portal to all federal, state and local government web resources and services.